STARLINK-1195 (45102 NORAD) Tracking and Keplerian Element Data

This shows tracking and keplerian element data for the satellite.

Feedback or suggestion? Click here.




ElementValue
Catalog45102
NameSTARLINK-1195
Epoch Orbit177
Epoch Day52.91667824
Epoch Year2020
RAAN119.5186
Inclination52.9971
Eccentricity0.000135
Argument of Perigee24.4592
Mean Anonmoly116.6271
Mean Motion15.73164077
Decay Rate0.00202563
L11 45102U 20006BL 20052.91667824 .00202563 00000-0 14150-2 0 9993
L22 45102 52.9971 119.5186 0001350 24.4592 116.6271 15.73164077 1773

Live tracking and technical data element details for STARLINK-1195 (NORAD 45102). STARLINK-1195 can be tracked NOW for your location showing map with azimuth and elevation plus other details from your city location.

Track the satellite on the map from your city or location and see movement details for azimuth, elevation, latitude, longitude, range, height, and movement on the map or in text.







IsCatalogInMostPopularTable: catalog: 45102, numindb: 9
Update: records affected: 1



GetName: 45102 STARLINK-1195

Hit Count: updated at: Wed, 26 Feb 2020 16:14:41 GMT